TimeCDT,TemperatureF,Dew PointF,Humidity,Sea Level PressureIn,VisibilityMPH,Wind Direction,Wind SpeedMPH,Gust SpeedMPH,PrecipitationIn,Events,Conditions,WindDirDegrees,DateUTC
12:15 AM,46.4,31.6,56,30.15,10.0,NNW,6.9,17.3,N/A,,Clear,340,2013-03-25 05:15:00
12:35 AM,45.9,31.6,58,30.16,10.0,North,5.8,-,N/A,,Clear,350,2013-03-25 05:35:00
12:55 AM,45.0,32.0,60,30.16,10.0,North,4.6,-,N/A,,Clear,350,2013-03-25 05:55:00
1:15 AM,44.2,32.0,62,30.16,10.0,North,5.8,-,N/A,,Clear,360,2013-03-25 06:15:00
1:35 AM,43.2,32.0,65,30.17,10.0,North,5.8,-,N/A,,Clear,350,2013-03-25 06:35:00
1:55 AM,42.3,32.0,67,30.17,10.0,North,4.6,-,N/A,,Clear,350,2013-03-25 06:55:00
2:15 AM,41.5,32.0,69,30.18,10.0,North,4.6,-,N/A,,Clear,350,2013-03-25 07:15:00
2:35 AM,40.8,32.0,71,30.18,10.0,North,4.6,-,N/A,,Clear,350,2013-03-25 07:35:00
2:55 AM,40.8,32.2,71,30.18,10.0,North,3.5,-,N/A,,Clear,10,2013-03-25 07:55:00
3:15 AM,40.8,32.0,71,30.18,10.0,North,4.6,-,N/A,,Clear,350,2013-03-25 08:15:00
3:35 AM,40.1,32.0,73,30.18,10.0,North,4.6,-,N/A,,Clear,350,2013-03-25 08:35:00
3:55 AM,40.5,31.8,71,30.18,10.0,North,6.9,-,N/A,,Clear,360,2013-03-25 08:55:00
4:15 AM,41.0,31.3,68,30.18,10.0,North,4.6,-,N/A,,Clear,360,2013-03-25 09:15:00
4:35 AM,40.8,30.6,67,30.19,10.0,North,9.2,-,N/A,,Clear,350,2013-03-25 09:35:00
4:55 AM,40.8,29.5,64,30.21,10.0,North,5.8,-,N/A,,Clear,350,2013-03-25 09:55:00
5:15 AM,40.6,28.6,62,30.21,10.0,North,6.9,-,N/A,,Clear,350,2013-03-25 10:15:00
5:35 AM,40.1,28.8,64,30.22,10.0,North,4.6,-,N/A,,Clear,350,2013-03-25 10:35:00
5:55 AM,39.2,29.7,69,30.23,10.0,NNW,6.9,-,N/A,,Clear,340,2013-03-25 10:55:00
6:15 AM,39.2,30.4,71,30.24,10.0,North,11.5,17.3,N/A,,Clear,350,2013-03-25 11:15:00
6:35 AM,39.7,27.9,63,30.24,10.0,North,9.2,19.6,N/A,,Clear,360,2013-03-25 11:35:00
6:55 AM,39.6,27.3,62,30.25,10.0,North,10.4,19.6,N/A,,Clear,350,2013-03-25 11:55:00
7:15 AM,38.8,27.5,64,30.26,10.0,North,8.1,17.3,N/A,,Clear,350,2013-03-25 12:15:00
7:35 AM,38.3,27.3,65,30.27,10.0,North,9.2,-,N/A,,Clear,350,2013-03-25 12:35:00
7:55 AM,38.8,27.3,63,30.28,10.0,North,9.2,-,N/A,,Clear,350,2013-03-25 12:55:00
8:15 AM,39.7,27.1,61,30.28,10.0,North,12.7,16.1,N/A,,Clear,360,2013-03-25 13:15:00
8:35 AM,40.8,26.2,56,30.29,10.0,North,15.0,20.7,N/A,,Clear,350,2013-03-25 13:35:00
8:55 AM,41.7,25.9,53,30.30,10.0,North,15.0,20.7,N/A,,Clear,350,2013-03-25 13:55:00
9:15 AM,42.6,24.8,49,30.31,10.0,North,13.8,23.0,N/A,,Clear,350,2013-03-25 14:15:00
9:35 AM,43.5,24.6,47,30.33,10.0,NNW,12.7,19.6,N/A,,Clear,340,2013-03-25 14:35:00
9:55 AM,44.6,24.8,46,30.34,10.0,North,12.7,20.7,N/A,,Clear,350,2013-03-25 14:55:00
10:15 AM,46.0,23.9,42,30.35,10.0,North,10.4,-,N/A,,Clear,350,2013-03-25 15:15:00
10:35 AM,47.3,22.8,38,30.35,10.0,North,8.1,-,N/A,,Clear,10,2013-03-25 15:35:00
10:55 AM,48.4,22.5,36,30.35,10.0,NNW,8.1,16.1,N/A,,Clear,330,2013-03-25 15:55:00
11:15 AM,49.8,23.4,36,30.35,10.0,North,9.2,-,N/A,,Clear,350,2013-03-25 16:15:00
11:35 AM,50.5,22.5,33,30.35,10.0,NNW,12.7,20.7,N/A,,Clear,330,2013-03-25 16:35:00
11:55 AM,51.3,21.2,31,30.35,10.0,WNW,8.1,-,N/A,,Clear,300,2013-03-25 16:55:00
12:15 PM,52.0,22.6,32,30.34,10.0,NW,10.4,-,N/A,,Clear,320,2013-03-25 17:15:00
12:35 PM,53.2,22.3,30,30.33,10.0,NNW,10.4,16.1,N/A,,Clear,340,2013-03-25 17:35:00
12:55 PM,54.1,22.5,29,30.33,10.0,NW,8.1,-,N/A,,Clear,310,2013-03-25 17:55:00
1:15 PM,55.4,22.3,28,30.33,10.0,NNW,11.5,20.7,N/A,,Clear,330,2013-03-25 18:15:00
1:35 PM,56.5,20.7,25,30.32,10.0,NW,15.0,20.7,N/A,,Clear,310,2013-03-25 18:35:00
1:55 PM,56.8,19.6,23,30.30,10.0,NW,12.7,25.3,N/A,,Clear,310,2013-03-25 18:55:00
2:15 PM,57.9,20.8,24,30.28,10.0,NW,13.8,20.7,N/A,,Clear,310,2013-03-25 19:15:00
2:35 PM,58.5,20.5,23,30.27,10.0,WNW,16.1,21.9,N/A,,Clear,300,2013-03-25 19:35:00
2:55 PM,59.0,19.6,22,30.26,10.0,NW,13.8,21.9,N/A,,Clear,320,2013-03-25 19:55:00
3:15 PM,59.5,19.6,21,30.25,10.0,NNW,16.1,24.2,N/A,,Clear,340,2013-03-25 20:15:00
3:35 PM,59.9,19.0,21,30.24,10.0,NNW,13.8,20.7,N/A,,Clear,330,2013-03-25 20:35:00
3:55 PM,60.6,19.6,20,30.24,10.0,NW,9.2,23.0,N/A,,Clear,310,2013-03-25 20:55:00
4:15 PM,60.8,18.7,20,30.23,10.0,NNW,12.7,25.3,N/A,,Clear,340,2013-03-25 21:15:00
4:35 PM,61.0,18.5,19,30.23,10.0,NW,13.8,23.0,N/A,,Clear,310,2013-03-25 21:35:00
4:55 PM,61.0,19.2,20,30.23,10.0,WNW,13.8,21.9,N/A,,Clear,300,2013-03-25 21:55:00
5:15 PM,60.8,19.8,21,30.24,10.0,NW,12.7,18.4,N/A,,Clear,310,2013-03-25 22:15:00
5:35 PM,60.4,18.3,20,30.24,10.0,NW,15.0,21.9,N/A,,Clear,310,2013-03-25 22:35:00
5:55 PM,59.9,19.0,21,30.25,10.0,NW,16.1,24.2,N/A,,Clear,310,2013-03-25 22:55:00
6:15 PM,59.2,19.9,22,30.25,10.0,NW,12.7,24.2,N/A,,Clear,310,2013-03-25 23:15:00
6:35 PM,58.5,19.6,22,30.26,10.0,NW,12.7,18.4,N/A,,Clear,320,2013-03-25 23:35:00
6:55 PM,57.6,20.7,24,30.26,10.0,NNW,9.2,-,N/A,,Clear,330,2013-03-25 23:55:00
7:15 PM,56.3,21.4,26,30.26,10.0,NNW,10.4,-,N/A,,Clear,340,2013-03-26 00:15:00
7:35 PM,54.9,22.1,28,30.27,10.0,NNW,5.8,-,N/A,,Clear,330,2013-03-26 00:35:00
7:55 PM,52.7,23.0,31,30.28,10.0,NNW,4.6,-,N/A,,Clear,340,2013-03-26 00:55:00
8:15 PM,51.3,23.5,34,30.29,10.0,NNW,3.5,-,N/A,,Clear,340,2013-03-26 01:15:00
8:35 PM,49.6,25.7,39,30.30,10.0,North,3.5,-,N/A,,Clear,350,2013-03-26 01:35:00
8:55 PM,48.9,26.1,41,30.31,10.0,North,5.8,-,N/A,,Clear,350,2013-03-26 01:55:00
9:15 PM,48.7,23.9,38,30.32,10.0,NNW,6.9,-,N/A,,Clear,330,2013-03-26 02:15:00
9:35 PM,48.6,23.2,37,30.33,10.0,North,4.6,-,N/A,,Clear,350,2013-03-26 02:35:00
9:55 PM,47.5,24.6,41,30.34,10.0,North,4.6,-,N/A,,Clear,350,2013-03-26 02:55:00
10:15 PM,46.9,25.3,43,30.36,10.0,NNW,3.5,-,N/A,,Clear,340,2013-03-26 03:15:00
10:35 PM,46.4,25.5,44,30.37,10.0,NNW,5.8,-,N/A,,Clear,340,2013-03-26 03:35:00
10:55 PM,45.9,25.0,44,30.38,10.0,NW,3.5,-,N/A,,Clear,320,2013-03-26 03:55:00
11:15 PM,45.1,25.2,46,30.38,10.0,NNW,3.5,-,N/A,,Clear,330,2013-03-26 04:15:00
11:35 PM,44.1,26.1,49,30.38,10.0,NNW,5.8,-,N/A,,Clear,340,2013-03-26 04:35:00
11:55 PM,43.7,26.1,50,30.38,10.0,North,4.6,-,N/A,,Clear,350,2013-03-26 04:55:00